Retour au catalogue

STARLINK-3875

ActifCommunicationsVLEO
NORAD 52483·PAYLOAD·🇺🇸 United States

Lancé May 6, 2022 depuis Cape Canaveral Space Force Station

Loading…

Prochains Passages (prochaines 24 heures)

TLE

FraisSource: CelesTrak SupGP

Époque: Sep 15, 2026, 01:50 UTC

1 52483C 22049AJ  26258.07687500  .00003384  00000+0  96806-4 0  2583
2 52483  53.1573 268.7500 0001277  95.9420  11.4040 15.35399172    18

Suivez STARLINK-3875 en temps réel avec AllMySat

Download on the App Store